Weather History for Culdrose, United Kingdom

Change the Weather History Date:

Sunday, November 3, 2013

  Actual Average Record
Temperature  
Mean Temperature 51 °F -  
Max Temperature 57 °F 51 °F 59 °F (2010)
Min Temperature 45 °F 43 °F 37 °F (2006)
Degree Days  
Heating Degree Days 14    
Growing Degree Days 1 (Base 50)    
Moisture  
Dew Point 45 °F    
Average Humidity 79    
Maximum Humidity 100    
Minimum Humidity 54    
Precipitation  
Precipitation 0.59 in - - ()
Sea Level Pressure  
Sea Level Pressure 29.52 in    
Wind  
Wind Speed 17 mph ()    
Max Wind Speed 26 mph    
Max Gust Speed 52 mph    
Visibility 5.5 miles    
Events Rain    
Averages and records for this station are not official NWS values.
T = Trace of Precipitation, MM = Missing Value Source: Averaged Metar Reports

Daily Weather History Graph

Daily Weather History Graph

Search for Another Location

Airport:

Trip Planner

Search our weather history database for the weather conditions in past years. The results will help you decide how hot, cold, wet, or windy it might be!

Date:

Astronomy

Nov. 03, 2013 Rise Set
Actual Time 7:14 AM GMT 4:54 PM GMT
Civil Twilight 6:40 AM GMT 5:28 PM GMT
Nautical Twilight 6:01 AM GMT 6:06 PM GMT
Astronomical Twilight 5:23 AM GMT 6:44 PM GMT
Moon 7:02 AM GMT (11/3) 4:56 PM GMT (11/3)
Length of Visible Light 10h 48m
Length of Day
9h 39m
Waning Crescent, 0% of the Moon is Illuminated
Nov 3
Waning Crescent
Nov 3
New
Nov 10
First Quarter
Nov 17
Full
Nov 25
Last Quarter

Hourly Weather History & Observations

Time (GMT) Temp. Windchill Dew Point Humidity Pressure Visibility Wind Dir Wind Speed Gust Speed Precip Events Conditions
12:00 AM 49 °F - 39 °F 58% 29.66 in 16 mi West 20.7 mph - -   Partly Cloudy
12:50 AM 50.0 °F - 39.2 °F 66% 29.65 in 6.2 mi WNW 19.6 mph 33.4 mph N/A   Scattered Clouds
1:50 AM 48.2 °F - 35.6 °F 62% 29.68 in 6.2 mi West 17.3 mph 29.9 mph N/A Rain Light Rain
2:50 AM 50.0 °F - 39.2 °F 66% 29.68 in 6.2 mi West 16.1 mph 27.6 mph N/A   Scattered Clouds
3:00 AM 49 °F - 40 °F 61% 29.69 in 12 mi West 16.1 mph - - Rain Light Rain Showers
3:50 AM 50.0 °F - 37.4 °F 62% 29.68 in 6.2 mi WNW 20.7 mph 33.4 mph N/A   Partly Cloudy
4:50 AM 46.4 °F 39.2 °F 41.0 °F 81% 29.71 in 6.2 mi WNW 18.4 mph 32.2 mph N/A   Scattered Clouds
5:50 AM 48.2 °F - 41.0 °F 76% 29.71 in 6.2 mi West 19.6 mph 33.4 mph N/A   Partly Cloudy
6:00 AM 48 °F - 41 °F 70% 29.72 in 11 mi West 19.6 mph - - Rain Light Rain Showers
6:50 AM 50.0 °F - 41.0 °F 71% 29.71 in 6.2 mi West 20.7 mph 34.5 mph N/A   Mostly Cloudy
7:50 AM 48.2 °F - 42.8 °F 82% 29.74 in 6.2 mi WNW 16.1 mph 29.9 mph N/A   Scattered Clouds
8:50 AM 50.0 °F - 39.2 °F 66% 29.71 in 6.2 mi West 18.4 mph 32.2 mph N/A   Scattered Clouds
9:00 AM 51 °F - 39 °F 54% 29.74 in 9 mi West 18.4 mph - -   Partly Cloudy
9:50 AM 51.8 °F - 37.4 °F 58% 29.74 in 6.2 mi West 20.7 mph 34.5 mph N/A   Scattered Clouds
10:50 AM 50.0 °F - 39.2 °F 66% 29.71 in 6.2 mi West 17.3 mph 36.8 mph N/A   Mostly Cloudy
11:00 AM 48.2 °F - 41.0 °F 76% 29.74 in 6.2 mi West 21.9 mph 41.4 mph N/A Rain Light Rain Showers
11:50 AM 51.8 °F - 42.8 °F 71% 29.71 in 6.2 mi West 12.7 mph 28.8 mph N/A   Mostly Cloudy
12:00 PM 51 °F - 43 °F 65% 29.71 in 12 mi West 12.7 mph - - Rain Light Rain Showers
12:50 PM 48.2 °F - 42.8 °F 82% 29.65 in 5.0 mi WSW 16.1 mph 32.2 mph N/A Rain Light Rain
1:50 PM 48.2 °F - 46.4 °F 93% 29.59 in 4.3 mi SW 16.1 mph - N/A Rain Rain
2:50 PM 50.0 °F - 48.2 °F 94% 29.50 in 5.0 mi South 12.7 mph 26.5 mph N/A Rain Rain
3:00 PM 49 °F - 47 °F 92% 29.53 in 5 mi South 12.7 mph - - Rain Rain
3:50 PM 50.0 °F - 50.0 °F 100% 29.39 in 2.2 mi South 16.1 mph - N/A Rain Rain
4:50 PM 51.8 °F - 51.8 °F 100% 29.27 in 1.2 mi South 26.5 mph 51.8 mph N/A Rain Rain
5:50 PM 55.4 °F - 55.4 °F 100% 29.21 in 1.1 mi WSW 23.0 mph 44.9 mph N/A Rain Rain
6:00 PM 56 °F - 56 °F 98% 29.22 in 1 mi WSW 23.0 mph - - Rain Rain
6:50 PM 55.4 °F - 55.4 °F 100% 29.18 in 2.5 mi West 19.6 mph 39.1 mph N/A   Mostly Cloudy
7:50 PM 57.2 °F - 53.6 °F 88% 29.18 in 2.5 mi West 19.6 mph 39.1 mph N/A   Haze
8:50 PM 55.4 °F - 53.6 °F 94% 29.15 in 2.5 mi West 20.7 mph 43.7 mph N/A Rain Light Rain
9:00 PM 56 °F - 53 °F 86% 29.17 in 2 mi West 20.7 mph - - Rain Light Rain
9:50 PM 55.4 °F - 53.6 °F 94% 29.12 in 2.5 mi West 20.7 mph 43.7 mph N/A   Haze
10:50 PM 55.4 °F - 53.6 °F 94% 29.09 in 1.9 mi West 23.0 mph 47.2 mph N/A   Light Drizzle
11:50 PM 53.6 °F - 51.8 °F 94% 29.09 in 3.1 mi WNW 21.9 mph 35.7 mph N/A   Haze